{"data":{"norad_id":55975,"epoch":"2026-05-25T04:41:40.318656Z","epoch_age_seconds":68347,"freshness":"FRESH","line1":"1 55975U 23039C   26145.19560554  .00014250  00000+0  28918-3 0  9993","line2":"2 55975  97.5212 317.9023 0002980 174.2002 185.9282 15.46469608177266","mean_motion":15.46469608,"eccentricity":0.000298,"inclination_deg":97.5212,"raan_deg":317.9023,"arg_perigee_deg":174.2002,"mean_anomaly_deg":185.9282,"bstar":0.00028918,"rev_number":17726,"period_min":93.115311969325,"perigee_km":425.03539017018,"apogee_km":429.09128957274,"semimajor_km":6805.2003398715,"source":"CELESTRAK","updated_at":"2026-05-25T13:38:12.253505Z"}}